Location: New Canada
(47.1017°N, 68.5042°W)
Time: 22:34:43
(UTC+00:00)

RS-44 - Pass Details

Date: 04 April 2023
Orbit: 1175 x 1510 km, 82.5° (Epoch: 02 June)

Event Time Altitude Azimuth Distance (km) Brightness Sun altitude
Rises 06:48:50 0° 344° (NNW) 4,425 ? -29.8°
Reaches altitude 10° 06:51:51 10° 336° (NNW) 3,493 ? -29.5°
Enters shadow 06:58:59 35° 278° (W) 2,201 ? -28.7°
